Time,TemperatureF,DewpointF,PressureIn,WindDirection,WindDirectionDegrees,WindSpeedMPH,WindSpeedGustMPH,Humidity,HourlyPrecipIn,Conditions,Clouds,dailyrainin,SoftwareType,DateUTC
2013-03-19 00:02:00,18.0,1.0,-100.00,East,85,6.0,16.0,47,0.00,,,-99.99,,2013-03-19 06:02:00,
2013-03-19 00:12:00,17.0,1.0,-100.00,SSE,160,7.0,18.0,48,0.00,,,-99.99,,2013-03-19 06:12:00,
2013-03-19 00:22:00,17.0,1.0,-100.00,SSE,150,4.0,11.0,49,0.00,,,-99.99,,2013-03-19 06:22:00,
2013-03-19 00:32:00,16.0,1.0,-100.00,South,170,6.0,11.0,50,0.00,,,-99.99,,2013-03-19 06:32:00,
2013-03-19 00:42:00,16.0,1.0,-100.00,SSE,160,7.0,13.0,51,0.00,,,-99.99,,2013-03-19 06:42:00,
2013-03-19 00:52:00,16.0,1.0,-100.00,SSE,155,7.0,12.0,50,0.00,,,-99.99,,2013-03-19 06:52:00,
2013-03-19 01:02:00,16.0,1.0,-100.00,SSW,200,4.0,10.0,51,0.00,,,-99.99,,2013-03-19 07:02:00,
2013-03-19 01:12:00,16.0,1.0,-100.00,SSE,160,4.0,8.0,51,0.00,,,-99.99,,2013-03-19 07:12:00,
2013-03-19 01:21:00,16.0,1.0,-100.00,SSE,150,3.0,10.0,51,0.00,,,-99.99,,2013-03-19 07:21:00,
2013-03-19 01:32:00,16.0,1.0,-100.00,South,190,3.0,11.0,51,0.00,,,-99.99,,2013-03-19 07:32:00,
2013-03-19 01:42:00,16.0,1.0,-100.00,SW,220,4.0,9.0,51,0.00,,,-99.99,,2013-03-19 07:42:00,
2013-03-19 01:52:00,15.0,1.0,-100.00,South,190,4.0,12.0,52,0.00,,,-99.99,,2013-03-19 07:52:00,
2013-03-19 02:02:00,15.0,1.0,-100.00,South,170,2.0,8.0,53,0.00,,,-99.99,,2013-03-19 08:02:00,
2013-03-19 02:12:00,15.0,1.0,-100.00,SE,140,2.0,6.0,53,0.00,,,-99.99,,2013-03-19 08:12:00,
2013-03-19 02:22:00,15.0,1.0,-100.00,SSE,150,4.0,7.0,53,0.00,,,-99.99,,2013-03-19 08:22:00,
2013-03-19 02:32:00,15.0,1.0,-100.00,SW,220,2.0,9.0,53,0.00,,,-99.99,,2013-03-19 08:32:00,
2013-03-19 02:42:00,15.0,1.0,-100.00,NW,305,1.0,7.0,52,0.00,,,-99.99,,2013-03-19 08:42:00,
2013-03-19 02:52:00,16.0,1.0,-100.00,ENE,70,2.0,9.0,52,0.00,,,-99.99,,2013-03-19 08:52:00,
2013-03-19 03:02:00,16.0,1.0,-100.00,WNW,290,4.0,12.0,51,0.00,,,-99.99,,2013-03-19 09:02:00,
2013-03-19 03:12:00,16.0,1.0,-100.00,SSE,160,1.0,6.0,51,0.00,,,-99.99,,2013-03-19 09:12:00,
2013-03-19 03:22:00,15.0,1.0,-100.00,ESE,110,1.0,4.0,52,0.00,,,-99.99,,2013-03-19 09:22:00,
2013-03-19 03:32:00,16.0,1.0,-100.00,NE,45,4.0,7.0,52,0.00,,,-99.99,,2013-03-19 09:32:00,
2013-03-19 03:43:00,16.0,1.0,-100.00,NNE,30,2.0,8.0,52,0.00,,,-99.99,,2013-03-19 09:43:00,
2013-03-19 03:52:00,15.0,1.0,-100.00,ESE,105,2.0,4.0,54,0.00,,,-99.99,,2013-03-19 09:52:00,
2013-03-19 04:03:00,15.0,1.0,-100.00,SSE,150,2.0,4.0,54,0.00,,,-99.99,,2013-03-19 10:03:00,
2013-03-19 04:12:00,15.0,2.0,-100.00,West,260,3.0,9.0,53,0.00,,,-99.99,,2013-03-19 10:12:00,
2013-03-19 04:23:00,15.0,1.0,-100.00,NE,40,2.0,7.0,53,0.00,,,-99.99,,2013-03-19 10:23:00,
2013-03-19 04:32:00,15.0,2.0,-100.00,NE,55,1.0,6.0,53,0.00,,,-99.99,,2013-03-19 10:32:00,
2013-03-19 04:42:00,15.0,1.0,-100.00,WSW,245,2.0,10.0,53,0.00,,,-99.99,,2013-03-19 10:42:00,
2013-03-19 04:52:00,15.0,2.0,-100.00,North,0,1.0,7.0,53,0.00,,,-99.99,,2013-03-19 10:52:00,
2013-03-19 05:02:00,15.0,1.0,-100.00,NNE,30,4.0,9.0,53,0.00,,,-99.99,,2013-03-19 11:02:00,
2013-03-19 05:12:00,15.0,2.0,-100.00,NE,50,3.0,9.0,53,0.00,,,-99.99,,2013-03-19 11:12:00,
2013-03-19 05:22:00,14.0,1.0,-100.00,NE,35,4.0,9.0,54,0.00,,,-99.99,,2013-03-19 11:22:00,
2013-03-19 05:32:00,15.0,2.0,-100.00,NNE,25,4.0,9.0,55,0.00,,,-99.99,,2013-03-19 11:32:00,
2013-03-19 05:42:00,15.0,2.0,-100.00,NNE,30,7.0,11.0,54,0.00,,,-99.99,,2013-03-19 11:42:00,
2013-03-19 05:52:00,15.0,2.0,-100.00,NNE,25,4.0,12.0,54,0.00,,,-99.99,,2013-03-19 11:52:00,
2013-03-19 06:02:00,15.0,2.0,-100.00,NNE,15,7.0,11.0,54,0.00,,,-99.99,,2013-03-19 12:02:00,
2013-03-19 06:12:00,15.0,2.0,-100.00,NE,35,3.0,12.0,54,0.00,,,-99.99,,2013-03-19 12:12:00,
2013-03-19 06:22:00,15.0,2.0,-100.00,NE,35,6.0,11.0,55,0.00,,,-99.99,,2013-03-19 12:22:00,
2013-03-19 06:33:00,15.0,2.0,-100.00,ESE,110,5.0,10.0,55,0.00,,,-99.99,,2013-03-19 12:33:00,
2013-03-19 06:42:00,15.0,2.0,-100.00,NE,50,4.0,12.0,55,0.00,,,-99.99,,2013-03-19 12:42:00,
2013-03-19 06:52:00,15.0,2.0,-100.00,NE,45,6.0,9.0,56,0.00,,,-99.99,,2013-03-19 12:52:00,
2013-03-19 07:02:00,15.0,2.0,-100.00,NE,55,6.0,9.0,57,0.00,,,-99.99,,2013-03-19 13:02:00,
2013-03-19 07:12:00,15.0,2.0,-100.00,NNE,15,6.0,7.0,57,0.00,,,-99.99,,2013-03-19 13:12:00,
2013-03-19 07:22:00,15.0,3.0,-100.00,NNE,15,7.0,12.0,58,0.00,,,-99.99,,2013-03-19 13:22:00,
2013-03-19 07:32:00,15.0,3.0,-100.00,North,0,6.0,15.0,58,0.00,,,-99.99,,2013-03-19 13:32:00,
2013-03-19 07:42:00,15.0,3.0,-100.00,North,0,11.0,22.0,59,0.00,,,-99.99,,2013-03-19 13:42:00,
2013-03-19 07:52:00,15.0,3.0,-100.00,North,0,10.0,17.0,58,0.00,,,-99.99,,2013-03-19 13:52:00,
2013-03-19 08:02:00,15.0,3.0,-100.00,North,0,11.0,17.0,59,0.00,,,-99.99,,2013-03-19 14:02:00,
2013-03-19 08:12:00,16.0,3.0,-100.00,North,0,7.0,19.0,55,0.00,,,-99.99,,2013-03-19 14:12:00,
2013-03-19 08:22:00,17.0,1.0,-100.00,North,0,11.0,20.0,50,0.00,,,-99.99,,2013-03-19 14:22:00,
2013-03-19 08:32:00,17.0,1.0,-100.00,North,0,12.0,19.0,48,0.00,,,-99.99,,2013-03-19 14:32:00,
2013-03-19 08:42:00,17.0,0.0,-100.00,NNW,330,11.0,19.0,46,0.00,,,-99.99,,2013-03-19 14:42:00,
2013-03-19 08:52:00,17.0,-1.0,-100.00,North,355,8.0,19.0,44,0.00,,,-99.99,,2013-03-19 14:52:00,
2013-03-19 09:02:00,18.0,-1.0,-100.00,North,0,11.0,17.0,42,0.00,,,-99.99,,2013-03-19 15:02:00,
2013-03-19 09:12:00,19.0,-2.0,-100.00,North,0,11.0,19.0,40,0.00,,,-99.99,,2013-03-19 15:12:00,
2013-03-19 09:22:00,19.0,-2.0,-100.00,NW,325,13.0,21.0,39,0.00,,,-99.99,,2013-03-19 15:22:00,
2013-03-19 09:33:00,19.0,-2.0,-100.00,NNE,15,14.0,24.0,38,0.00,,,-99.99,,2013-03-19 15:33:00,
2013-03-19 09:43:00,20.0,-2.0,-100.00,North,0,6.0,18.0,37,0.00,,,-99.99,,2013-03-19 15:43:00,
2013-03-19 09:53:00,20.0,-2.0,-100.00,NE,35,8.0,15.0,36,0.00,,,-99.99,,2013-03-19 15:53:00,
2013-03-19 10:03:00,20.0,-3.0,-100.00,NNE,25,9.0,16.0,35,0.00,,,-99.99,,2013-03-19 16:03:00,
2013-03-19 10:13:00,21.0,-3.0,-100.00,NE,40,7.0,15.0,33,0.00,,,-99.99,,2013-03-19 16:13:00,
2013-03-19 10:23:00,21.0,-3.0,-100.00,NNE,20,7.0,19.0,33,0.00,,,-99.99,,2013-03-19 16:23:00,
2013-03-19 10:34:00,22.0,-3.0,-100.00,North,0,4.0,20.0,33,0.00,,,-99.99,,2013-03-19 16:34:00,
2013-03-19 10:44:00,22.0,-2.0,-100.00,NE,40,7.0,17.0,33,0.00,,,-99.99,,2013-03-19 16:44:00,
2013-03-19 10:53:00,23.0,-3.0,-100.00,NE,35,4.0,12.0,32,0.00,,,-99.99,,2013-03-19 16:53:00,
2013-03-19 11:03:00,23.0,-3.0,-100.00,ESE,105,2.0,14.0,32,0.00,,,-99.99,,2013-03-19 17:03:00,
2013-03-19 11:13:00,23.0,-2.0,-100.00,NE,35,4.0,13.0,32,0.00,,,-99.99,,2013-03-19 17:13:00,
2013-03-19 11:23:00,22.0,-3.0,-100.00,North,10,9.0,15.0,31,0.00,,,-99.99,,2013-03-19 17:23:00,
2013-03-19 11:34:00,23.0,-3.0,-100.00,ESE,115,3.0,14.0,31,0.00,,,-99.99,,2013-03-19 17:34:00,
2013-03-19 11:44:00,23.0,-3.0,-100.00,NNE,15,6.0,17.0,30,0.00,,,-99.99,,2013-03-19 17:44:00,
2013-03-19 11:52:00,24.0,-3.0,-100.00,North,10,7.0,14.0,30,0.00,,,-99.99,,2013-03-19 17:52:00,
2013-03-19 12:03:00,25.0,-2.0,-100.00,East,90,4.0,11.0,30,0.00,,,-99.99,,2013-03-19 18:03:00,
2013-03-19 12:13:00,25.0,-1.0,-100.00,SW,220,5.0,12.0,30,0.00,,,-99.99,,2013-03-19 18:13:00,
2013-03-19 12:23:00,26.0,-1.0,-100.00,ESE,105,4.0,10.0,30,0.00,,,-99.99,,2013-03-19 18:23:00,
2013-03-19 12:33:00,26.0,-1.0,-100.00,SSE,160,5.0,16.0,30,0.00,,,-99.99,,2013-03-19 18:33:00,
2013-03-19 12:43:00,25.0,-1.0,-100.00,SE,145,11.0,16.0,31,0.00,,,-99.99,,2013-03-19 18:43:00,
2013-03-19 12:53:00,27.0,0.0,-100.00,SSE,165,4.0,13.0,30,0.00,,,-99.99,,2013-03-19 18:53:00,
2013-03-19 13:02:00,26.0,0.0,-100.00,SSE,165,4.0,16.0,30,0.00,,,-99.99,,2013-03-19 19:02:00,
2013-03-19 13:12:00,27.0,0.0,-100.00,SE,135,4.0,11.0,29,0.00,,,-99.99,,2013-03-19 19:12:00,
2013-03-19 13:22:00,28.0,1.0,-100.00,ENE,65,2.0,10.0,29,0.00,,,-99.99,,2013-03-19 19:22:00,
2013-03-19 13:33:00,26.0,-2.0,-100.00,NE,50,6.0,10.0,28,0.00,,,-99.99,,2013-03-19 19:33:00,
2013-03-19 13:42:00,27.0,-1.0,-100.00,SE,130,2.0,11.0,29,0.00,,,-99.99,,2013-03-19 19:42:00,
2013-03-19 13:52:00,27.0,0.0,-100.00,SE,130,4.0,11.0,29,0.00,,,-99.99,,2013-03-19 19:52:00,
2013-03-19 14:02:00,28.0,1.0,-100.00,South,190,6.0,11.0,30,0.00,,,-99.99,,2013-03-19 20:02:00,
2013-03-19 14:12:00,28.0,-1.0,-100.00,WNW,285,3.0,11.0,28,0.00,,,-99.99,,2013-03-19 20:12:00,
2013-03-19 14:22:00,28.0,0.0,-100.00,ENE,70,4.0,16.0,28,0.00,,,-99.99,,2013-03-19 20:22:00,
2013-03-19 14:32:00,26.0,-4.0,-100.00,North,0,4.0,11.0,26,0.00,,,-99.99,,2013-03-19 20:32:00,
2013-03-19 14:42:00,27.0,-3.0,-100.00,North,5,6.0,12.0,25,0.00,,,-99.99,,2013-03-19 20:42:00,
2013-03-19 14:52:00,28.0,-4.0,-100.00,North,0,4.0,13.0,24,0.00,,,-99.99,,2013-03-19 20:52:00,
2013-03-19 15:02:00,28.0,-4.0,-100.00,South,180,7.0,14.0,24,0.00,,,-99.99,,2013-03-19 21:02:00,
2013-03-19 15:12:00,28.0,-5.0,-100.00,WSW,250,3.0,14.0,23,0.00,,,-99.99,,2013-03-19 21:12:00,
2013-03-19 15:22:00,27.0,-6.0,-100.00,North,0,3.0,14.0,23,0.00,,,-99.99,,2013-03-19 21:22:00,
2013-03-19 15:33:00,28.0,-6.0,-100.00,East,90,3.0,12.0,22,0.00,,,-99.99,,2013-03-19 21:33:00,
2013-03-19 15:43:00,28.0,-7.0,-100.00,NNE,20,3.0,10.0,21,0.00,,,-99.99,,2013-03-19 21:43:00,
2013-03-19 15:52:00,27.0,-7.0,-100.00,North,0,4.0,11.0,21,0.00,,,-99.99,,2013-03-19 21:52:00,
2013-03-19 16:03:00,28.0,-7.0,-100.00,NE,45,6.0,13.0,21,0.00,,,-99.99,,2013-03-19 22:03:00,
2013-03-19 16:12:00,27.0,-7.0,-100.00,NNE,20,4.0,15.0,21,0.00,,,-99.99,,2013-03-19 22:12:00,
2013-03-19 16:23:00,28.0,-7.0,-100.00,South,170,6.0,11.0,21,0.00,,,-99.99,,2013-03-19 22:23:00,
2013-03-19 16:33:00,28.0,-7.0,-100.00,SE,135,6.0,14.0,21,0.00,,,-99.99,,2013-03-19 22:33:00,
2013-03-19 16:43:00,26.0,-9.0,-100.00,South,170,7.0,11.0,20,0.00,,,-99.99,,2013-03-19 22:43:00,
2013-03-19 16:52:00,26.0,-8.0,-100.00,North,0,4.0,14.0,21,0.00,,,-99.99,,2013-03-19 22:52:00,
2013-03-19 17:02:00,27.0,-8.0,-100.00,ESE,105,5.0,11.0,20,0.00,,,-99.99,,2013-03-19 23:02:00,
2013-03-19 17:12:00,28.0,-8.0,-100.00,ENE,70,1.0,9.0,20,0.00,,,-99.99,,2013-03-19 23:12:00,
2013-03-19 17:22:00,26.0,-9.0,-100.00,South,185,5.0,14.0,20,0.00,,,-99.99,,2013-03-19 23:22:00,
2013-03-19 17:32:00,25.0,-10.0,-100.00,SE,145,4.0,12.0,20,0.00,,,-99.99,,2013-03-19 23:32:00,
2013-03-19 17:42:00,25.0,-10.0,-100.00,NNW,330,3.0,11.0,20,0.00,,,-99.99,,2013-03-19 23:42:00,
2013-03-19 17:52:00,24.0,-11.0,-100.00,South,190,2.0,10.0,20,0.00,,,-99.99,,2013-03-19 23:52:00,
2013-03-19 18:02:00,25.0,-10.0,-100.00,SE,130,4.0,7.0,20,0.00,,,-99.99,,2013-03-20 00:02:00,
2013-03-19 18:13:00,24.0,-11.0,-100.00,North,5,3.0,7.0,20,0.00,,,-99.99,,2013-03-20 00:13:00,
2013-03-19 18:22:00,24.0,-11.0,-100.00,ESE,115,1.0,10.0,20,0.00,,,-99.99,,2013-03-20 00:22:00,
2013-03-19 18:33:00,23.0,-11.0,-100.00,ESE,115,2.0,10.0,20,0.00,,,-99.99,,2013-03-20 00:33:00,
2013-03-19 18:42:00,23.0,-12.0,-100.00,NNE,25,4.0,9.0,20,0.00,,,-99.99,,2013-03-20 00:42:00,
2013-03-19 18:52:00,23.0,-11.0,-100.00,SSE,160,1.0,6.0,20,0.00,,,-99.99,,2013-03-20 00:52:00,
2013-03-19 19:03:00,22.0,-11.0,-100.00,East,100,4.0,7.0,21,0.00,,,-99.99,,2013-03-20 01:03:00,
2013-03-19 19:12:00,22.0,-12.0,-100.00,SSW,205,2.0,7.0,21,0.00,,,-99.99,,2013-03-20 01:12:00,
2013-03-19 19:22:00,22.0,-12.0,-100.00,ENE,70,4.0,9.0,21,0.00,,,-99.99,,2013-03-20 01:22:00,
2013-03-19 19:32:00,21.0,-12.0,-100.00,North,5,2.0,7.0,21,0.00,,,-99.99,,2013-03-20 01:32:00,
2013-03-19 19:42:00,20.0,-12.0,-100.00,NNW,330,1.0,3.0,22,0.00,,,-99.99,,2013-03-20 01:42:00,
2013-03-19 19:52:00,20.0,-12.0,-100.00,NNW,335,2.0,4.0,22,0.00,,,-99.99,,2013-03-20 01:52:00,
2013-03-19 20:02:00,19.0,-12.0,-100.00,NE,50,2.0,3.0,23,0.00,,,-99.99,,2013-03-20 02:02:00,
2013-03-19 20:12:00,19.0,-12.0,-100.00,SW,215,3.0,4.0,23,0.00,,,-99.99,,2013-03-20 02:12:00,
2013-03-19 20:22:00,18.0,-12.0,-100.00,NNE,15,2.0,4.0,24,0.00,,,-99.99,,2013-03-20 02:22:00,
2013-03-19 20:32:00,19.0,-10.0,-100.00,NE,45,2.0,6.0,25,0.00,,,-99.99,,2013-03-20 02:32:00,
2013-03-19 20:42:00,19.0,-10.0,-100.00,North,0,2.0,6.0,26,0.00,,,-99.99,,2013-03-20 02:42:00,
2013-03-19 20:52:00,17.0,-11.0,-100.00,NNE,30,2.0,4.0,27,0.00,,,-99.99,,2013-03-20 02:52:00,
2013-03-19 21:02:00,16.0,-11.0,-100.00,NW,325,1.0,4.0,28,0.00,,,-99.99,,2013-03-20 03:02:00,
2013-03-19 21:12:00,15.0,-12.0,-100.00,NW,320,1.0,4.0,29,0.00,,,-99.99,,2013-03-20 03:12:00,
2013-03-19 21:22:00,14.0,-12.0,-100.00,North,5,0.0,3.0,28,0.00,,,-99.99,,2013-03-20 03:22:00,
2013-03-19 21:33:00,14.0,-13.0,-100.00,South,180,1.0,2.0,28,0.00,,,-99.99,,2013-03-20 03:33:00,
2013-03-19 21:42:00,14.0,-14.0,-100.00,South,170,2.0,4.0,27,0.00,,,-99.99,,2013-03-20 03:42:00,
2013-03-19 21:53:00,14.0,-13.0,-100.00,South,180,1.0,3.0,28,0.00,,,-99.99,,2013-03-20 03:53:00,
2013-03-19 22:03:00,14.0,-13.0,-100.00,South,170,2.0,3.0,28,0.00,,,-99.99,,2013-03-20 04:03:00,
2013-03-19 22:12:00,14.0,-12.0,-100.00,SSE,165,2.0,3.0,28,0.00,,,-99.99,,2013-03-20 04:12:00,
2013-03-19 22:22:00,14.0,-13.0,-100.00,South,170,0.0,2.0,27,0.00,,,-99.99,,2013-03-20 04:22:00,
2013-03-19 22:32:00,14.0,-14.0,-100.00,NE,55,0.0,3.0,27,0.00,,,-99.99,,2013-03-20 04:32:00,
2013-03-19 22:43:00,14.0,-14.0,-100.00,South,180,0.0,2.0,26,0.00,,,-99.99,,2013-03-20 04:43:00,
2013-03-19 22:52:00,14.0,-15.0,-100.00,South,175,1.0,2.0,26,0.00,,,-99.99,,2013-03-20 04:52:00,
2013-03-19 23:02:00,14.0,-14.0,-100.00,North,5,2.0,3.0,26,0.00,,,-99.99,,2013-03-20 05:02:00,
2013-03-19 23:12:00,16.0,-14.0,-100.00,North,0,2.0,4.0,24,0.00,,,-99.99,,2013-03-20 05:12:00,
2013-03-19 23:22:00,15.0,-15.0,-100.00,North,0,3.0,4.0,24,0.00,,,-99.99,,2013-03-20 05:22:00,
2013-03-19 23:32:00,17.0,-14.0,-100.00,North,0,4.0,7.0,23,0.00,,,-99.99,,2013-03-20 05:32:00,
2013-03-19 23:42:00,16.0,-16.0,-100.00,North,0,4.0,6.0,22,0.00,,,-99.99,,2013-03-20 05:42:00,
2013-03-19 23:52:00,14.0,-18.0,-100.00,North,0,4.0,7.0,22,0.00,,,-99.99,,2013-03-20 05:52:00,